Location: *
(46.1833°N, 22.7667°E)
Time: 22:49:11
(UTC+00:00)

Cosmos 1140 Rocket - Pass Details

Date: 17 September 2019
Orbit: 745 x 767 km, 74.1° (Epoch: 14 October)

Event Time Altitude Azimuth Distance (km) Brightness Sun altitude
Rises 19:19:11 0° 333° (NNW) 3,223 7.7 -26.9°
Reaches altitude 10° 19:21:37 10° 329° (NNW) 2,290 6.8 -27.3°
Maximum altitude 19:26:37 50° 255° (WSW) 954 4.1 -28.0°
Enters shadow 19:27:06 48° 235° (SW) 975 4.0 -28.0°
